Location: Lawrence
(38.9720°N, 95.2350°W)
Time: 02:07:59
(UTC-06:00)

Amateur Radio Satellites - All Passes

Search period start: 14 February 2016 01:37
Search period end: 15 February 2016 01:37
Location: Lawrence, 38.9720°N, 95.2350°W

Satellite Date Start Highest point End Downlink Frequencies (MHz)
Time Altitude Azimuth
Gurwin Techsat 1B 14 Feb 01:45:51 01:50:16 26° 95° (E) 01:54:40 435.225
ITAMSAT 1 14 Feb 01:57:55 02:01:14 17° 92° (E) 02:04:32 435.822/435.867
KKS-1 14 Feb 02:02:53 02:06:05 20° 66° (ENE) 02:09:18 437.445
JAS-2 14 Feb 02:05:56 02:11:25 75° 102° (ESE) 02:16:34 435.910
AIST 2 14 Feb 02:05:59 02:09:05 20° 48° (NE) 02:12:11 435.215
YUBILEINY 14 Feb 02:09:16 02:16:59 36° 85° (E) 02:24:44 435.215
DANDE 14 Feb 02:11:13 02:19:14 81° 280° (W) 02:27:45 436.750
Oscar 19 14 Feb 02:16:54 02:21:56 58° 287° (WNW) 02:26:56 437.125/150
BEESAT 3 14 Feb 02:18:07 02:20:56 19° 249° (WSW) 02:23:45 437.485
SWISSCUBE 14 Feb 02:29:56 02:33:55 26° 264° (W) 02:37:57 437.505
MOZHAYETS 4 14 Feb 02:30:31 02:33:08 15° 65° (ENE) 02:35:47
CUSAT 1 14 Feb 02:43:11 02:50:14 32° 289° (WNW) 02:57:05 437.405
Cosmos 2504 14 Feb 02:49:17 02:51:30 11° 73° (ENE) 02:53:42 435.465 / 435.565
BEESAT 2 14 Feb 02:51:31 02:53:29 13° 251° (WSW) 02:55:27 435.950
PHONESAT 2.4 14 Feb 03:01:20 03:04:38 84° 195° (SSW) 03:07:54 2401.200-2431.200
SO-50 14 Feb 03:02:48 03:06:33 22° 110° (ESE) 03:10:20 436.795
AO-7 14 Feb 03:02:56 03:09:26 25° 94° (E) 03:15:53 29.400- 29.500
STARS 14 Feb 03:08:28 03:12:45 54° 73° (ENE) 03:17:02 437.465
ITUPSAT 1 14 Feb 03:11:59 03:13:37 12° 270° (W) 03:15:16 437.325
Cosmos 2491 14 Feb 03:19:26 03:27:24 41° 273° (W) 03:35:25 435.465 / 435.565
Gurwin Techsat 1B 14 Feb 03:25:24 03:30:15 37° 291° (WNW) 03:35:05 435.225
ITAMSAT 1 14 Feb 03:35:54 03:41:01 56° 288° (WNW) 03:46:07 435.822/435.867
KKS-1 14 Feb 03:38:16 03:42:23 37° 262° (W) 03:46:32 437.445
AIST 2 14 Feb 03:43:53 03:47:44 39° 245° (WSW) 03:51:32 435.215
JAS-2 14 Feb 03:53:17 03:55:43 13° 302° (WNW) 03:58:06 435.910
DANDE 14 Feb 03:58:10 04:03:27 18° 298° (WNW) 04:08:49 436.750
YUBILEINY 14 Feb 04:05:06 04:13:28 48° 284° (WNW) 04:21:57 435.215
MOZHAYETS 4 14 Feb 04:05:25 04:09:52 51° 260° (W) 04:14:21
Cosmos 2504 14 Feb 04:34:31 04:43:03 67° 92° (E) 04:51:51 435.465 / 435.565
PHONESAT 2.4 14 Feb 04:39:01 04:41:36 22° 210° (SSW) 04:44:11 2401.200-2431.200
SO-50 14 Feb 04:42:04 04:46:45 44° 307° (NW) 04:51:30 436.795
STARS 14 Feb 04:47:30 04:49:25 13° 268° (W) 04:51:19 437.465
AO-7 14 Feb 04:54:31 05:02:46 68° 292° (WNW) 05:10:57 29.400- 29.500
HORYU 2 14 Feb 04:57:19 05:01:48 88° 291° (WNW) 05:06:16 437.375
CUBESAT XI-V 14 Feb 04:58:52 05:03:27 57° 74° (ENE) 05:08:05 437.345
M-CUBED/EXP-1 PRIME 14 Feb 05:09:14 05:12:39 58° 290° (WNW) 05:16:21 437.505
AUBIESAT-1 14 Feb 05:14:41 05:18:11 62° 289° (WNW) 05:21:56 437.475
LilacSat-2 14 Feb 05:38:00 05:39:12 11° 91° (E) 05:40:25 437.200
CUTE-I 14 Feb 05:48:45 05:53:03 24° 94° (E) 05:57:19 437.470
STRAND 1 14 Feb 05:57:12 06:01:39 31° 68° (ENE) 06:06:08 437.568
Cubesat XI-IV 14 Feb 06:03:37 06:08:27 33° 97° (E) 06:13:16 437.490
Cosmos 2504 14 Feb 06:30:02 06:37:06 27° 292° (WNW) 06:44:20 435.465 / 435.565
BRITE-PL 14 Feb 06:30:42 06:34:41 30° 95° (E) 06:38:26 437.365/2234.400
CUBESAT XI-V 14 Feb 06:38:51 06:41:11 14° 269° (W) 06:43:31 437.345
AO-7 14 Feb 06:49:52 06:54:01 15° 312° (NW) 06:58:09 29.400- 29.500
LilacSat-2 14 Feb 07:10:08 07:13:45 43° 286° (WNW) 07:17:21 437.200
O/OREOS (USA 219) 14 Feb 07:11:12 07:15:40 74° 109° (ESE) 07:20:10 437.305
GOMX 1 14 Feb 07:11:32 07:15:35 39° 98° (E) 07:19:28 467.674
CUTE-I 14 Feb 07:28:11 07:33:12 41° 290° (WNW) 07:38:12 437.470
GONETS M04 14 Feb 07:36:07 07:43:11 29° 83° (E) 07:50:16
STRAND 1 14 Feb 07:36:20 07:40:45 29° 264° (W) 07:45:14 437.568
Cosmos 2499 14 Feb 07:37:33 07:38:21 10° 73° (ENE) 07:39:09 435.465 / 435.565
PRISM 14 Feb 07:38:30 07:42:40 78° 257° (WSW) 07:46:52 437.425
Cubesat XI-IV 14 Feb 07:43:46 07:48:25 30° 293° (WNW) 07:53:03 437.490
HO-68 14 Feb 07:48:28 07:54:39 30° 96° (E) 08:00:46 435.675
CANX-2 14 Feb 08:02:42 08:06:36 33° 97° (E) 08:10:29 2200.000
AO-85 14 Feb 08:05:37 08:08:44 16° 106° (ESE) 08:11:55 145.980
DOVE 4 14 Feb 08:05:53 08:10:04 83° 100° (E) 08:14:13 437.250
BRITE-PL 14 Feb 08:09:28 08:13:01 22° 293° (WNW) 08:16:22 437.365/2234.400
JUGNU 14 Feb 08:21:46 08:23:28 11° 181° (S) 08:25:11 437.505
CINEMA 3 14 Feb 08:24:22 08:28:19 41° 99° (E) 08:32:20 145.822/145.860
COMPASS 1 14 Feb 08:27:07 08:30:51 29° 96° (E) 08:34:32 437.405
SEEDS 14 Feb 08:49:47 08:54:04 77° 102° (ESE) 08:58:19 437.485
GOMX 1 14 Feb 08:50:42 08:53:21 16° 295° (WNW) 08:55:55 467.674
AAUSAT CUBESAT 2 14 Feb 08:50:45 08:54:49 45° 99° (E) 08:58:51 437.432
CUTE 1.7 + AOD 2 14 Feb 08:52:10 08:56:28 74° 283° (WNW) 09:00:45 437.475
O/OREOS (USA 219) 14 Feb 08:54:00 08:55:37 12° 307° (NW) 08:57:14 437.305
Oscar 11 14 Feb 09:03:53 09:07:32 26° 96° (E) 09:11:10 145.826/435.025
ANTELSAT 14 Feb 09:08:08 09:11:23 21° 68° (ENE) 09:14:37 437.575/2403.000
TIGRISAT 14 Feb 09:13:08 09:16:30 23° 69° (ENE) 09:19:52 435.000
Cosmos 2499 14 Feb 09:21:01 09:29:37 63° 92° (E) 09:38:20 435.465 / 435.565
UWE-3 14 Feb 09:24:49 09:28:58 50° 99° (E) 09:33:13 435.000/436.395/437.385
DELFI C3 14 Feb 09:26:13 09:29:29 23° 95° (E) 09:32:46 145.870
GONETS M04 14 Feb 09:30:55 09:39:25 57° 282° (WNW) 09:47:59
CUBEBUG 2 14 Feb 09:34:32 09:38:47 87° 283° (WNW) 09:43:08 437.445
HO-68 14 Feb 09:35:39 09:42:32 50° 293° (WNW) 09:49:23 435.675
PCSat 14 Feb 09:37:33 09:42:47 52° 113° (ESE) 09:48:03 145.827
CANX-2 14 Feb 09:39:05 09:42:14 20° 292° (WNW) 09:45:24 2200.000
AO-85 14 Feb 09:43:18 09:48:37 71° 302° (WNW) 09:54:09 145.980
POPSAT HIP 1 14 Feb 09:43:59 09:45:43 12° 64° (ENE) 09:47:27 437.405
HUMSAT D 14 Feb 09:44:44 09:47:24 16° 93° (E) 09:50:03 437.325/437.525
DUCHIFAT 1 14 Feb 09:44:57 09:46:25 12° 64° (ENE) 09:47:53 145.980
NANOSAT C BR1 14 Feb 09:45:27 09:47:14 13° 64° (ENE) 09:49:01 145.865
QB50P1 14 Feb 09:55:03 09:57:46 17° 66° (ENE) 10:00:28 145.935-145.965
UNISAT 6 14 Feb 09:58:35 10:02:52 81° 78° (ENE) 10:07:09 437.425
RS-15 14 Feb 10:01:55 10:11:54 41° 107° (ESE) 10:22:20 29.354- 29.394
CINEMA 3 14 Feb 10:02:43 10:05:09 15° 294° (WNW) 10:07:37 145.822/145.860
COMPASS 1 14 Feb 10:03:01 10:06:14 22° 292° (WNW) 10:09:28 437.405
SRMSAT 14 Feb 10:07:19 10:08:56 11° 179° (S) 10:10:34 437.500
ZACube-1 14 Feb 10:07:31 10:11:47 74° 283° (WNW) 10:16:08 437.345
FUNcube-1 14 Feb 10:13:58 10:18:11 66° 285° (WNW) 10:22:30 145.935
AIST 1 14 Feb 10:15:27 10:19:50 78° 95° (E) 10:24:15
BUGSAT 1 14 Feb 10:23:51 10:26:32 17° 67° (ENE) 10:29:11 437.445
AAUSAT CUBESAT 2 14 Feb 10:27:35 10:29:55 15° 294° (WNW) 10:32:15 437.432
VELOX 1 14 Feb 10:38:04 10:39:10 11° 90° (E) 10:40:16 145.980
Oscar 11 14 Feb 10:39:58 10:43:34 26° 291° (WNW) 10:47:10 145.826/435.025
ANTELSAT 14 Feb 10:44:10 10:47:56 30° 263° (W) 10:51:42 437.575/2403.000
POLYITAN 1 14 Feb 10:47:59 10:52:11 68° 75° (ENE) 10:56:23 437.675
QB50P2 14 Feb 10:48:22 10:52:34 71° 76° (ENE) 10:56:47 145.880/145.840
TIGRISAT 14 Feb 10:49:24 10:53:04 27° 264° (W) 10:56:44 435.000
AISAT 14 Feb 10:53:57 10:56:59 18° 94° (E) 11:00:00 437.250
CUBEBUG 1 14 Feb 10:59:12 11:01:59 17° 93° (E) 11:04:45 437.445
DX 1 14 Feb 10:59:46 11:03:05 21° 95° (E) 11:06:22 434.975-435.025
DELFI C3 14 Feb 11:01:00 11:04:19 25° 290° (WNW) 11:07:37 145.870
UWE-3 14 Feb 11:02:54 11:05:03 14° 294° (WNW) 11:07:11 435.000/436.395/437.385
Cosmos 2499 14 Feb 11:15:56 11:23:17 29° 291° (WNW) 11:30:43 435.465 / 435.565
POPSAT HIP 1 14 Feb 11:16:53 11:21:02 56° 259° (W) 11:25:11 437.405
DANDE 14 Feb 11:16:56 11:17:51 10° 54° (NE) 11:18:44 436.750
DUCHIFAT 1 14 Feb 11:17:28 11:21:37 59° 259° (W) 11:25:46 145.980
NANOSAT C BR1 14 Feb 11:18:22 11:22:30 55° 259° (W) 11:26:39 145.865
HUMSAT D 14 Feb 11:19:16 11:23:10 38° 288° (WNW) 11:27:06 437.325/437.525
PCSat 14 Feb 11:22:11 11:26:28 23° 311° (NW) 11:30:47 145.827
AO-85 14 Feb 11:27:19 11:30:10 14° 322° (NW) 11:33:01 145.980
QB50P1 14 Feb 11:29:16 11:33:14 39° 262° (W) 11:37:13 145.935-145.965
ESTCUBE 1 14 Feb 11:34:52 11:39:22 59° 101° (E) 11:43:49 437.505/2401.250
SO-50 14 Feb 11:35:12 11:38:27 18° 43° (NE) 11:41:38 436.795
CUSAT 1 14 Feb 11:40:51 11:45:03 25° 67° (ENE) 11:48:26 437.405
50 SAT 14 Feb 11:47:02 11:50:51 83° 284° (WNW) 11:54:40 437.505
Oscar 19 14 Feb 11:54:45 11:58:35 21° 65° (ENE) 12:02:25 437.125/150
BUGSAT 1 14 Feb 11:57:42 12:01:36 38° 261° (W) 12:05:30 437.445
TISAT 1 14 Feb 12:06:43 12:07:35 11° 91° (E) 12:08:27 437.305
VELOX 1 14 Feb 12:11:41 12:16:03 62° 286° (WNW) 12:20:22 145.980
RS-15 14 Feb 12:12:55 12:23:52 58° 310° (NW) 12:35:28 29.354- 29.394
UKube-1 14 Feb 12:13:54 12:18:12 64° 285° (WNW) 12:22:27 .
SPROUT 14 Feb 12:14:29 12:18:32 40° 98° (E) 12:22:32 437.525
JAS-2 14 Feb 12:15:30 12:21:58 34° 67° (ENE) 12:27:55 435.910
YUBILEINY 14 Feb 12:21:49 12:26:51 16° 62° (ENE) 12:31:52 435.215
AISAT 14 Feb 12:29:33 12:33:36 37° 289° (WNW) 12:37:38 437.250
CUBEBUG 1 14 Feb 12:34:23 12:38:26 39° 288° (WNW) 12:42:28 437.445
DX 1 14 Feb 12:35:27 12:39:18 31° 290° (WNW) 12:43:07 434.975-435.025
DANDE 14 Feb 12:56:05 13:02:29 80° 80° (E) 13:07:09 436.750
Gurwin Techsat 1B 14 Feb 13:05:37 13:10:27 37° 69° (ENE) 13:15:19 435.225
ESTCUBE 1 14 Feb 13:13:28 13:15:39 13° 297° (WNW) 13:17:50 437.505/2401.250
ITAMSAT 1 14 Feb 13:14:33 13:18:38 24° 65° (ENE) 13:22:43 435.822/435.867
SO-50 14 Feb 13:14:40 13:19:26 66° 242° (WSW) 13:24:01 436.795
CUSAT 1 14 Feb 13:23:15 13:27:11 24° 275° (W) 13:30:22 437.405
Oscar 19 14 Feb 13:32:38 13:37:35 45° 261° (W) 13:42:32 437.125/150
ITUPSAT 1 14 Feb 13:33:16 13:36:42 19° 94° (E) 13:40:06 437.325
BEESAT 14 Feb 13:38:04 13:41:47 22° 95° (E) 13:45:27 436.000
TISAT 1 14 Feb 13:39:30 13:43:36 57° 286° (WNW) 13:47:41 437.305
SPROUT 14 Feb 13:51:30 13:54:10 16° 294° (WNW) 13:56:50 437.525
JAS-2 14 Feb 13:59:34 14:06:47 47° 261° (W) 14:13:23 435.910
AO-7 14 Feb 14:00:38 14:07:48 33° 59° (ENE) 14:14:57 29.400- 29.500
ISS 14 Feb 14:05:08 14:08:22 78° 140° (SE) 14:11:38 145.825
YUBILEINY 14 Feb 14:16:12 14:25:07 82° 83° (E) 14:33:55 435.215
Cosmos 2491 14 Feb 14:21:59 14:30:14 49° 89° (E) 14:38:28 435.465 / 435.565
SWISSCUBE 14 Feb 14:30:16 14:35:06 85° 103° (ESE) 14:39:55 437.505
Cosmos 2504 14 Feb 14:30:28 14:36:47 22° 66° (ENE) 14:42:45 435.465 / 435.565
RS-15 14 Feb 14:31:15 14:39:44 22° 340° (NNW) 14:48:32 29.354- 29.394
DANDE 14 Feb 14:42:33 14:43:52 11° 285° (WNW) 14:45:09 436.750
Gurwin Techsat 1B 14 Feb 14:46:06 14:50:27 26° 265° (W) 14:54:51 435.225
ITAMSAT 1 14 Feb 14:52:57 14:57:49 40° 261° (W) 15:02:44 435.822/435.867
STARS 14 Feb 15:02:05 15:02:47 10° 91° (E) 15:03:28 437.465
BEESAT 2 14 Feb 15:06:09 15:07:18 11° 108° (ESE) 15:08:29 435.950
ITUPSAT 1 14 Feb 15:10:09 15:14:42 42° 289° (WNW) 15:19:13 437.325
BEESAT 14 Feb 15:15:14 15:19:38 37° 290° (WNW) 15:24:01 436.000
KKS-1 14 Feb 15:30:04 15:34:19 44° 99° (E) 15:38:32 437.445
ISS 14 Feb 15:42:52 15:45:08 17° 337° (NNW) 15:47:25 145.825
O/OREOS (USA 219) 14 Feb 15:45:00 15:46:59 13° 53° (NE) 15:48:58 437.305
AO-7 14 Feb 15:51:57 16:00:07 57° 257° (WSW) 16:08:21 29.400- 29.500
HORYU 2 14 Feb 15:53:58 15:58:22 73° 75° (ENE) 16:02:47 437.375
M-CUBED/EXP-1 PRIME 14 Feb 15:55:41 15:59:10 52° 254° (WSW) 16:02:28 437.505
AUBIESAT-1 14 Feb 16:00:39 16:04:09 57° 254° (WSW) 16:07:29 437.475
MOZHAYETS 4 14 Feb 16:01:34 16:05:57 39° 98° (E) 16:10:17
BEESAT 3 14 Feb 16:06:49 16:10:47 87° 301° (WNW) 16:14:48 437.485
SWISSCUBE 14 Feb 16:11:15 16:12:10 10° 300° (WNW) 16:13:06 437.505
YUBILEINY 14 Feb 16:15:06 16:20:43 19° 282° (WNW) 16:26:21 435.215
Cosmos 2491 14 Feb 16:19:33 16:27:15 34° 288° (WNW) 16:35:01 435.465 / 435.565
Cosmos 2504 14 Feb 16:22:37 16:31:04 72° 267° (W) 16:38:51 435.465 / 435.565
STARS 14 Feb 16:35:12 16:39:32 64° 286° (WNW) 16:43:51 437.465
AO-85 14 Feb 16:38:08 16:40:35 13° 37° (NE) 16:42:58 145.980
BEESAT 2 14 Feb 16:40:43 16:44:41 58° 304° (WNW) 16:48:40 435.950
RS-15 14 Feb 16:49:58 16:58:28 21° 17° (NNE) 17:07:07 29.354- 29.394
CUBESAT XI-V 14 Feb 16:58:02 17:00:50 16° 92° (E) 17:03:37 437.345
KKS-1 14 Feb 17:07:43 17:10:32 17° 295° (WNW) 17:13:19 437.445
CUTE-I 14 Feb 17:09:17 17:14:03 35° 68° (ENE) 17:18:53 437.470
O/OREOS (USA 219) 14 Feb 17:22:20 17:26:55 71° 251° (WSW) 17:31:29 437.305
Cubesat XI-IV 14 Feb 17:24:21 17:29:27 48° 71° (ENE) 17:34:34 437.490
BRITE-PL 14 Feb 17:38:53 17:44:02 37° 71° (ENE) 17:49:00 437.365/2234.400
MOZHAYETS 4 14 Feb 17:39:28 17:42:49 20° 293° (WNW) 17:46:09
AIST 2 14 Feb 17:39:47 17:43:51 55° 118° (ESE) 17:47:56 435.215
BEESAT 3 14 Feb 17:48:45 17:49:10 10° 319° (NW) 17:49:35 437.485
GONETS M04 14 Feb 17:48:57 17:52:29 13° 59° (ENE) 17:56:00
LilacSat-2 14 Feb 17:50:35 17:54:22 72° 77° (ENE) 17:58:09 437.200
STRAND 1 14 Feb 18:11:20 18:12:34 11° 89° (E) 18:13:50 437.568
AO-85 14 Feb 18:16:57 18:22:06 75° 58° (ENE) 18:26:45 145.980
HO-68 14 Feb 18:17:08 18:22:12 21° 58° (ENE) 18:27:16 435.675
GOMX 1 14 Feb 18:17:23 18:22:25 43° 72° (ENE) 18:27:10 467.674
Cosmos 2504 14 Feb 18:20:24 18:22:39 11° 287° (WNW) 18:24:52 435.465 / 435.565
PCSat 14 Feb 18:26:43 18:31:37 33° 53° (NE) 18:36:30 145.827
CUBESAT XI-V 14 Feb 18:33:58 18:38:29 48° 287° (WNW) 18:42:58 437.345
CUTE-I 14 Feb 18:49:37 18:54:06 28° 264° (W) 18:58:40 437.470
CANX-2 14 Feb 18:54:56 18:58:04 21° 68° (ENE) 19:01:14 2200.000
ISS 14 Feb 18:58:27 19:00:15 14° 18° (NNE) 19:02:04 145.825
RS-15 14 Feb 19:03:11 19:14:55 50° 48° (NE) 19:26:47 29.354- 29.394
Cubesat XI-IV 14 Feb 19:05:55 19:09:45 20° 267° (W) 19:13:37 437.490
DOVE 4 14 Feb 19:09:19 19:14:19 74° 76° (ENE) 19:19:03 437.250
Cosmos 2499 14 Feb 19:16:02 19:21:39 20° 64° (ENE) 19:27:00 435.465 / 435.565
COMPASS 1 14 Feb 19:17:36 19:20:25 18° 67° (ENE) 19:23:15 437.405
BRITE-PL 14 Feb 19:17:38 19:22:28 29° 265° (W) 19:27:12 437.365/2234.400
AIST 2 14 Feb 19:20:05 19:22:41 16° 315° (NW) 19:25:18 435.215
PRISM 14 Feb 19:22:46 19:25:16 15° 93° (E) 19:27:46 437.425
CINEMA 3 14 Feb 19:24:50 19:28:56 34° 72° (ENE) 19:32:52 145.822/145.860
AAUSAT CUBESAT 2 14 Feb 19:40:15 19:43:41 26° 70° (ENE) 19:47:09 437.432
SEEDS 14 Feb 19:40:16 19:44:14 43° 73° (ENE) 19:48:14 437.485
GONETS M04 14 Feb 19:42:17 19:51:06 69° 81° (E) 19:59:53
CUTE 1.7 + AOD 2 14 Feb 19:43:22 19:47:31 65° 76° (ENE) 19:51:44 437.475
STRAND 1 14 Feb 19:47:08 19:52:19 80° 285° (WNW) 19:57:28 437.568
GOMX 1 14 Feb 19:56:31 20:00:34 22° 266° (W) 20:04:29 467.674
Oscar 11 14 Feb 19:58:11 20:01:05 18° 67° (ENE) 20:04:01 145.826/435.025
AO-85 14 Feb 20:00:06 20:01:45 12° 256° (WSW) 20:03:22 145.980
HO-68 14 Feb 20:01:59 20:09:09 76° 256° (WSW) 20:16:22 435.675
PCSat 14 Feb 20:10:08 20:14:58 33° 251° (WSW) 20:19:45 145.827
DELFI C3 14 Feb 20:12:57 20:14:41 13° 65° (ENE) 20:16:25 145.870
UWE-3 14 Feb 20:20:57 20:24:45 34° 72° (ENE) 20:28:31 435.000/436.395/437.385
AIST 1 14 Feb 20:24:54 20:27:45 17° 72° (ENE) 20:30:33
CANX-2 14 Feb 20:30:00 20:33:43 31° 263° (W) 20:37:30 2200.000
CUBEBUG 2 14 Feb 20:31:24 20:35:38 66° 75° (ENE) 20:39:47 437.445
ISS 14 Feb 20:34:00 20:37:13 64° 37° (NE) 20:40:26 145.825
DOVE 4 14 Feb 20:51:03 20:52:23 11° 269° (W) 20:53:41 437.250
COMPASS 1 14 Feb 20:51:54 20:55:43 35° 263° (W) 20:59:34 437.405
PRISM 14 Feb 20:56:52 21:00:46 39° 288° (WNW) 21:04:37 437.425
ZACube-1 14 Feb 21:02:03 21:06:13 72° 76° (ENE) 21:10:22 437.345
CINEMA 3 14 Feb 21:02:48 21:06:07 20° 265° (W) 21:09:21 145.822/145.860
Cosmos 2499 14 Feb 21:07:36 21:15:50 78° 266° (W) 21:23:22 435.465 / 435.565
FUNcube-1 14 Feb 21:08:11 21:12:21 81° 76° (ENE) 21:16:30 145.935
AAUSAT CUBESAT 2 14 Feb 21:15:48 21:19:08 23° 265° (W) 21:22:29 437.432
RS-15 14 Feb 21:15:56 21:27:33 53° 250° (WSW) 21:39:15 29.354- 29.394
SEEDS 14 Feb 21:17:57 21:20:11 14° 268° (W) 21:22:24 437.485
Oscar 11 14 Feb 21:32:57 21:36:55 37° 262° (W) 21:40:56 145.826/435.025
GONETS M04 14 Feb 21:40:32 21:47:02 24° 279° (W) 21:53:34
DELFI C3 14 Feb 21:45:18 21:49:09 48° 261° (W) 21:53:02 145.870
AISAT 14 Feb 21:50:57 21:53:34 15° 65° (ENE) 21:56:09 437.250
UNISAT 6 14 Feb 21:52:10 21:55:14 18° 94° (E) 21:58:20 437.425
DX 1 14 Feb 21:54:44 21:57:35 17° 65° (ENE) 22:00:25 434.975-435.025
CUBEBUG 1 14 Feb 21:55:00 21:57:07 13° 64° (ENE) 21:59:13 437.445
HO-68 14 Feb 21:56:07 21:57:54 11° 272° (W) 21:59:42 435.675
UWE-3 14 Feb 21:58:28 22:01:19 18° 266° (W) 22:04:09 435.000/436.395/437.385
AIST 1 14 Feb 22:01:31 22:05:29 36° 269° (W) 22:09:24
HUMSAT D 14 Feb 22:09:01 22:13:03 66° 259° (WSW) 22:17:08 437.325/437.525
ISS 14 Feb 22:11:59 22:13:16 12° 232° (SW) 22:14:32 145.825
50 SAT 14 Feb 22:26:02 22:29:27 36° 73° (ENE) 22:32:54 437.505
ESTCUBE 1 14 Feb 22:33:03 22:37:23 46° 72° (ENE) 22:41:45 437.505/2401.250
ANTELSAT 14 Feb 22:36:04 22:40:24 56° 100° (E) 22:44:49 437.575/2403.000
POLYITAN 1 14 Feb 22:36:19 22:37:54 12° 91° (E) 22:39:29 437.675
QB50P2 14 Feb 22:36:30 22:38:17 12° 92° (E) 22:40:04 145.880/145.840
TIGRISAT 14 Feb 22:40:59 22:45:19 61° 101° (E) 22:49:45 435.000
PHONESAT 2.4 14 Feb 22:51:54 22:55:02 43° 157° (SSE) 22:58:11 2401.200-2431.200
POPSAT HIP 1 14 Feb 23:03:21 23:06:48 24° 96° (E) 23:10:14 437.405
DUCHIFAT 1 14 Feb 23:03:27 23:06:46 22° 95° (E) 23:10:04 145.980
NANOSAT C BR1 14 Feb 23:04:29 23:07:55 24° 96° (E) 23:11:21 145.865
Cosmos 2499 14 Feb 23:04:32 23:07:18 12° 286° (WNW) 23:10:00 435.465 / 435.565
UKube-1 14 Feb 23:06:53 23:11:13 90° 76° (ENE) 23:15:35 .
SPROUT 14 Feb 23:07:15 23:10:54 27° 70° (ENE) 23:14:31 437.525
VELOX 1 14 Feb 23:07:24 23:11:52 83° 257° (WSW) 23:16:21 145.980
QB50P1 14 Feb 23:15:09 23:19:00 33° 98° (E) 23:22:48 145.935-145.965
AISAT 14 Feb 23:25:18 23:29:38 49° 260° (W) 23:33:59 437.250
UNISAT 6 14 Feb 23:28:00 23:32:04 38° 288° (WNW) 23:36:11 437.425
CUBEBUG 1 14 Feb 23:28:33 23:32:54 57° 259° (W) 23:37:17 437.445
DX 1 14 Feb 23:29:17 23:33:25 42° 261° (W) 23:37:36 434.975-435.025
BUGSAT 1 14 Feb 23:40:49 23:44:23 30° 97° (E) 23:47:55 437.445
50 SAT 15 Feb 00:01:55 00:03:37 13° 268° (W) 00:05:21 437.505
POLYITAN 1 15 Feb 00:09:54 00:14:01 52° 286° (WNW) 00:18:06 437.675
QB50P2 15 Feb 00:10:18 00:14:23 50° 287° (WNW) 00:18:27 145.880/145.840
ESTCUBE 1 15 Feb 00:11:43 00:14:25 16° 268° (W) 00:17:09 437.505/2401.250
ANTELSAT 15 Feb 00:14:33 00:16:40 13° 295° (WNW) 00:18:48 437.575/2403.000
DANDE 15 Feb 00:19:31 00:25:05 21° 81° (E) 00:30:48 436.750
TIGRISAT 15 Feb 00:19:43 00:21:31 12° 296° (WNW) 00:23:20 435.000
BEESAT 3 15 Feb 00:25:43 00:29:24 35° 53° (NE) 00:33:02 437.485
PHONESAT 2.4 15 Feb 00:28:56 00:32:13 70° 353° (N) 00:35:29 2401.200-2431.200
TISAT 1 15 Feb 00:29:36 00:33:49 87° 76° (ENE) 00:38:03 437.305
Cosmos 2491 15 Feb 00:34:22 00:40:56 23° 66° (ENE) 00:47:27 435.465 / 435.565
CUSAT 1 15 Feb 00:38:26 00:46:02 46° 91° (E) 00:53:22 437.405
DUCHIFAT 1 15 Feb 00:38:54 00:42:26 27° 290° (WNW) 00:45:58 145.980
POPSAT HIP 1 15 Feb 00:39:03 00:42:31 26° 291° (WNW) 00:46:00 437.405
ITUPSAT 1 15 Feb 00:39:09 00:42:36 20° 65° (ENE) 00:46:05 437.325
NANOSAT C BR1 15 Feb 00:40:08 00:43:35 25° 291° (WNW) 00:47:03 145.865
SPROUT 15 Feb 00:43:22 00:46:49 24° 265° (W) 00:50:18 437.525
BEESAT 15 Feb 00:43:33 00:47:14 23° 66° (ENE) 00:50:56 436.000
QB50P1 15 Feb 00:51:34 00:54:32 19° 293° (WNW) 00:57:30 145.935-145.965
BEESAT 2 15 Feb 01:00:08 01:04:03 53° 56° (NE) 01:07:55 435.950
JAS-2 15 Feb 01:11:49 01:16:01 23° 93° (E) 01:20:03 435.910
BUGSAT 1 15 Feb 01:16:41 01:19:34 19° 292° (WNW) 01:22:26 437.445
YUBILEINY 15 Feb 01:22:41 01:28:10 19° 78° (ENE) 01:33:39 435.215
Gurwin Techsat 1B 15 Feb 01:24:05 01:27:17 16° 92° (E) 01:30:28 435.225
